User: anonymous
Location: Camp Creek
(33.9000°N, 111.8167°W)
Time: 07:36:28
(UTC-07:00)
Language:

Cosmos 2322 Rocket - Orbit

View from above orbital plane
View from above orbital plane
View from above satellite
View from above satellite

Ground track
Ground track

The orbit data is extracted from the following two-line orbital elements,

1 23705U 95058B   14204.11620342 -.00000136  00000-0 -45615-4 0  2961
2 23705 071.0223 092.9825 0010545 117.3070 242.9128 14.15013888967237
Epoch (UTC): 23 July 2014 02:47:19
Eccentricity: 0.0010545
inclination: 71.0223°
perigee height: 834 km
apogee height: 850 km
right ascension of ascending node: 92.9825°
argument of perigee: 117.3070°
revolutions per day: 14.15013888
mean anomaly at epoch: 242.9128°
orbit number at epoch: 96723

The dashed part of the orbit path shows where the satellite is in the earth's shadow,  

DLR